TimeCST,TemperatureF,Dew PointF,Humidity,Sea Level PressureIn,VisibilityMPH,Wind Direction,Wind SpeedMPH,Gust SpeedMPH,PrecipitationIn,Events,Conditions,WindDirDegrees,DateUTC
12:55 AM,42.6,41.0,94,30.31,10.0,Calm,Calm,-,N/A,,Clear,0,2012-11-19 06:55:00
1:55 AM,41.2,39.9,95,30.30,10.0,Calm,Calm,-,N/A,,Clear,0,2012-11-19 07:55:00
2:34 AM,41.0,39.2,93,30.30,10.0,Calm,Calm,-,N/A,,Clear,0,2012-11-19 08:34:00
2:41 AM,41.0,39.2,93,30.30,10.0,Calm,Calm,-,N/A,,Clear,0,2012-11-19 08:41:00
2:55 AM,39.7,38.5,95,30.30,4.0,Calm,Calm,-,0.00,,Clear,0,2012-11-19 08:55:00
3:55 AM,39.6,38.7,97,30.29,10.0,Calm,Calm,-,N/A,,Clear,0,2012-11-19 09:55:00
4:55 AM,39.2,38.5,97,30.30,10.0,Calm,Calm,-,N/A,,Clear,0,2012-11-19 10:55:00
5:55 AM,38.5,37.8,97,30.30,10.0,Calm,Calm,-,N/A,,Clear,0,2012-11-19 11:55:00
6:55 AM,40.1,39.2,97,30.31,10.0,Calm,Calm,-,N/A,,Clear,0,2012-11-19 12:55:00
7:55 AM,48.7,45.9,90,30.31,10.0,NNE,3.5,-,N/A,,Clear,20,2012-11-19 13:55:00
8:55 AM,53.1,45.7,76,30.32,10.0,NE,4.6,-,N/A,,Clear,50,2012-11-19 14:55:00
9:55 AM,57.7,45.3,63,30.31,10.0,Variable,4.6,-,N/A,,Scattered Clouds,0,2012-11-19 15:55:00
10:55 AM,59.5,46.2,61,30.30,10.0,Variable,3.5,-,N/A,,Partly Cloudy,0,2012-11-19 16:55:00
11:55 AM,61.3,46.9,59,30.26,10.0,NE,3.5,-,N/A,,Mostly Cloudy,50,2012-11-19 17:55:00
12:55 PM,64.8,48.4,55,30.24,10.0,WNW,6.9,-,N/A,,Partly Cloudy,300,2012-11-19 18:55:00
1:55 PM,66.9,48.9,52,30.22,10.0,NW,6.9,-,N/A,,Partly Cloudy,320,2012-11-19 19:55:00
2:55 PM,67.3,48.4,51,30.21,10.0,Variable,3.5,-,N/A,,Partly Cloudy,0,2012-11-19 20:55:00
3:55 PM,65.8,48.0,53,30.20,10.0,NNE,6.9,-,N/A,,Clear,20,2012-11-19 21:55:00
4:55 PM,60.6,47.7,62,30.19,10.0,Calm,Calm,-,N/A,,Clear,0,2012-11-19 22:55:00
5:55 PM,54.3,47.7,78,30.19,10.0,Calm,Calm,-,N/A,,Clear,0,2012-11-19 23:55:00
6:55 PM,50.7,47.1,87,30.20,10.0,Calm,Calm,-,N/A,,Clear,0,2012-11-20 00:55:00
7:55 PM,47.8,45.9,93,30.21,10.0,Calm,Calm,-,N/A,,Partly Cloudy,0,2012-11-20 01:55:00
8:55 PM,49.1,46.4,90,30.22,10.0,Calm,Calm,-,N/A,,Overcast,0,2012-11-20 02:55:00
9:55 PM,49.5,47.1,92,30.20,10.0,Calm,Calm,-,N/A,,Overcast,0,2012-11-20 03:55:00
10:55 PM,46.4,45.0,95,30.19,10.0,Calm,Calm,-,N/A,,Partly Cloudy,0,2012-11-20 04:55:00
11:39 PM,44.6,44.6,100,30.18,1.2,Calm,Calm,-,N/A,,Clear,0,2012-11-20 05:39:00
11:41 PM,44.6,44.6,100,30.18,1.0,Calm,Calm,-,N/A,,Clear,0,2012-11-20 05:41:00
11:43 PM,44.6,44.6,100,30.18,0.8,Calm,Calm,-,N/A,,Clear,0,2012-11-20 05:43:00
11:44 PM,44.6,44.6,100,30.18,0.8,Calm,Calm,-,N/A,,Clear,0,2012-11-20 05:44:00
11:46 PM,44.6,44.6,100,30.19,1.0,Calm,Calm,-,N/A,,Clear,0,2012-11-20 05:46:00
11:50 PM,44.6,44.6,100,30.19,2.0,Calm,Calm,-,N/A,,Clear,0,2012-11-20 05:50:00
11:52 PM,44.6,44.6,100,30.19,4.0,Calm,Calm,-,N/A,,Clear,0,2012-11-20 05:52:00
11:55 PM,44.8,43.9,97,30.19,8.0,North,-9999.0,-,N/A,,Clear,0,2012-11-20 05:55:00